Flag for Canada Weather past 2 weeks in Fort Smith, Northwest Territories, Canada

Now
54 °F

Passing clouds.


Feels Like: 52 °F
Forecast: 39 / 59 °F
Wind: 6 mph from North

Location: Fort Smith

Current Time: Aug 21, 2014 at 10:31:23 AM

Latest Report: Aug 21, 2014 at 10:00 AM


Visibility: 15 mi

Pressure: 30.23 "Hg

Humidity: 58%

Dew point: 39 °F

Location of Fort SmithLocation

Historic Weather in Fort Smith — Graph

°F

Fort Smith temperature yesterday

Maximum temperature yesterday: 54 °F (at 3:00 PM)
Minimum temperature yesterday: 45 °F (at 2:00 AM)
Average temperature yesterday: 48 °F

Past Weeks' High & Low Weather Summary

 TemperatureHumidityPressure
High88 °F (Aug 6, 1:00 PM)100% (Aug 6, 11:00 PM)30.22 "Hg (Aug 6, 11:00 PM)
Low41 °F (Aug 21, 5:00 AM)32% (Aug 10, 4:00 PM)29.53 "Hg (Aug 19, 12:00 AM)
Average62 °F73%29.85 "Hg
* Reported Aug 6 9:00 AM — Aug 21 9:00 AM, Fort Smith, Weather by CustomWeather, © 2014

Note: Actual official high and low records may vary slightly from our data, if they occured in-between our weather recording intervals... More about our weather records

Advertising

Fort Smith weather history for previous 24 hours

 ConditionsComfort  
Time TempWeatherWind HumidityBarometerVisibility
9:00 AM
Aug 21
48 °FPassing clouds.5 mph71%30.22 "Hg15 mi
8:00 AM43 °FPassing clouds.6 mph87%30.20 "Hg15 mi
7:00 AM41 °FPassing clouds.5 mph87%30.19 "Hg15 mi
6:00 AM41 °FPassing clouds.7 mph87%30.18 "Hg15 mi
5:00 AM41 °FPassing clouds.7 mph87%30.16 "Hg15 mi
4:00 AM43 °FPassing clouds.8 mph87%30.14 "Hg15 mi
3:00 AM43 °FPassing clouds.7 mph87%30.13 "Hg15 mi
2:00 AM45 °FPassing clouds.7 mph81%30.11 "Hg15 mi
1:00 AM45 °FPassing clouds.5 mph76%30.11 "Hg15 mi
12:00 AM45 °FPassing clouds.5 mph87%30.09 "Hg15 mi
11:00 PM
Aug 20
46 °FPartly cloudy.3 mph82%30.07 "Hg15 mi
10:00 PM50 °FBroken clouds.3 mph71%30.06 "Hg15 mi
9:00 PM52 °FScattered clouds.3 mph72%30.05 "Hg15 mi
8:00 PM52 °FScattered clouds.8 mph72%30.05 "Hg15 mi
7:00 PM54 °FScattered clouds.7 mph67%30.03 "Hg15 mi
6:00 PM54 °FOvercast.5 mph67%30.02 "Hg15 mi
5:00 PM54 °FOvercast.6 mph63%30.00 "Hg15 mi
4:00 PM52 °FOvercast.8 mph72%29.99 "Hg15 mi
3:00 PM54 °FOvercast.9 mph67%29.98 "Hg15 mi
2:00 PM50 °FOvercast.8 mph71%29.97 "Hg15 mi
1:00 PM50 °FOvercast.8 mph71%29.96 "Hg15 mi
12:00 PM48 °FOvercast.9 mph76%29.94 "Hg15 mi
11:00 AM48 °FOvercast.9 mph76%29.93 "Hg15 mi
10:00 AM46 °FOvercast.9 mph82%29.91 "Hg15 mi
Weather by CustomWeather, © 2014

See weather overviewHow to use our weather pages